This is the latest recevied weather packets stored in our database for station/object KD9JB-1. If no packets are shown the sender has not sent any weather packets the latest 10 day(s).
| Time | Temp. | Humidity | Pressure | Rain* | Wind** | Luminosity | Snow |
|---|---|---|---|---|---|---|---|
| 1778048794 | 8.89° C | 93% | 1010.2 hPa | 1.52 mm | - | - | - |
| 1778048494 | 8.89° C | 93% | 1010.2 hPa | 1.27 mm | - | - | - |
| 1778048194 | 8.89° C | 93% | 1010.3 hPa | 1.52 mm | - | - | - |
| 1778047894 | 8.89° C | 93% | 1010.2 hPa | 1.78 mm | - | - | - |
| 1778047595 | 8.89° C | 93% | 1010.1 hPa | 2.54 mm | - | - | - |
| 1778047294 | 8.89° C | 93% | 1009.9 hPa | 3.05 mm | - | - | - |
| 1778046994 | 8.89° C | 93% | 1009.7 hPa | 2.79 mm | - | - | - |
| 1778046694 | 8.89° C | 93% | 1009.7 hPa | 3.3 mm | - | - | - |
| 1778046394 | 8.89° C | 93% | 1009.9 hPa | 3.56 mm | - | - | - |
| 1778046094 | 9.44° C | 93% | 1009.7 hPa | 3.56 mm | - | - | - |
| 1778045794 | 9.44° C | 93% | 1009.6 hPa | 3.81 mm | - | - | - |
| 1778045494 | 9.44° C | 93% | 1009.7 hPa | 4.06 mm | - | - | - |
| 1778045194 | 9.44° C | 93% | 1009.5 hPa | 4.06 mm | - | - | - |
| 1778044894 | 9.44° C | 93% | 1009.6 hPa | 4.32 mm | - | - | - |
| 1778044594 | 9.44° C | 93% | 1009.9 hPa | 4.06 mm | - | - | - |
| 1778044294 | 9.44° C | 93% | 1009.5 hPa | 4.06 mm | - | - | - |
| 1778043994 | 9.44° C | 93% | 1009.4 hPa | 3.3 mm | - | - | - |
| 1778043694 | 9.44° C | 93% | 1009.5 hPa | 2.79 mm | - | - | - |
| 1778043394 | 9.44° C | 93% | 1009.5 hPa | 2.79 mm | - | - | - |
| 1778043094 | 9.44° C | 93% | 1009.1 hPa | 2.29 mm | - | - | - |
| 1778042794 | 9.44° C | 93% | 1009.8 hPa | 2.29 mm | - | - | - |
| 1778042494 | 9.44° C | 93% | 1009.3 hPa | 2.79 mm | - | - | - |
| 1778042194 | 9.44° C | 93% | 1009.2 hPa | 2.54 mm | - | - | - |
| 1778041894 | 9.44° C | 93% | 1009.5 hPa | 2.79 mm | - | - | - |
| 1778041595 | 9.44° C | 93% | 1009.5 hPa | 3.05 mm | - | - | - |
* Rain latest hour (hover to see other rain measurements)
** Current wind speed in m/s (hover to see current wind gust speed)